Regional Weather Roundup
Issued by NWS

Home | Current Version | Previous Version | Text Only | Print | Product List | Glossary On
Versions: 1 2 3 4 5 6 7 8 9 10 11 12 13 14 15 16 17 18 19 20 21 22 23 24 25 26 27 28 29 30 31 32 33 34 35 36 37 38 39 40 41 42 43 44 45 46 47 48 49 50
000
ASUS42 KFFC 311310
RWRGA
WEATHER ROUNDUP FOR GEORGIA
NATIONAL WEATHER SERVICE PEACHTREE CITY GA
900 AM EDT FRI JUL 31 2015

NOTE: "FAIR" INDICATES FEW OR NO CLOUDS BELOW 12,000 FEET WITH NO
SIGNIFICANT WEATHER AND/OR OBSTRUCTIONS TO VISIBILITY.

* = USE WITH CAUTION. THE STATIONS MARKED WITH AN ASTERISK MAY NOT
REPORT WEATHER SUCH AS PRECIPITATION, FOG, OR THUNDER AND ARE NOT
QUALITY CONTROLLED BY NWS.

THE REMARK "TC" DENOTES TEMPERATURE READING IN DEGREES CELSIUS.

GAZ001>058-311400-
NORTH GEORGIA

CITY           SKY/WX    TMP DP  RH WIND       PRES   REMARKS
ATLANTA        MOSUNNY   79  68  69 N6        30.00R
ATHENS         SUNNY     82  68  62 E10       29.98R
CHAMBLEE       SUNNY     80  68  66 N5        30.00R
PEACHTREE CITY SUNNY     78  67  68 N5        30.00R
ROME           SUNNY     77  61  57 N12       30.02R
WEST ATLANTA   SUNNY     77  67  71 N3        30.00R
GAINESVILLE    SUNNY     79  68  69 E10       30.04R
CARTERSVILLE   SUNNY     75  63  66 N6        30.03R


CITY           SKY/WX    TMP DP  RH WIND       PRES   REMARKS
DALTON*        SUNNY     72  64  78 N13G20    30.03R
LAWRENCEVILLE* SUNNY     81  64  57 NE8       29.99R
MARIETTA       MOSUNNY   81  66  61 VRB3      30.01R
KENNESAW*      SUNNY     73  64  73 W5        30.02R
BLAIRSVILLE*     N/A     72  59  63 CALM      30.09R
$$

GAZ059>098-102>109-311400-
CENTRAL GEORGIA

CITY           SKY/WX    TMP DP  RH WIND       PRES   REMARKS
AUGUSTA-BUSH   PTSUNNY   81  75  82 NE3       29.95R
AUGUSTA-DANIEL MOSUNNY   83  72  69 NE10      29.97R
COLUMBUS       SUNNY     79  67  66 N6        29.96R
MACON          SUNNY     82  74  76 NW5       29.94S
ROBINS AFB     SUNNY     81  74  79 N3        29.93R


CITY           SKY/WX    TMP DP  RH WIND       PRES   REMARKS
LAGRANGE*      SUNNY     80  72  76 N6        29.99R
SYLVANIA*      MOSUNNY   83  78  84 CALM      29.95R HX  93
MILLEDGEVILLE* SUNNY     81  73  78 NE3       29.95R
$$

GAZ099>101-110>166-311400-
SOUTH GEORGIA

CITY           SKY/WX    TMP DP  RH WIND       PRES   REMARKS
SAVANNAH       CLOUDY    81  75  82 W8        29.94R
VALDOSTA       NOT AVBL
ALMA           CLOUDY    77  75  93 SW5       29.95R FOG
ST SIMONS      CLOUDY    78  76  93 SW10      29.95R
FT STEWART     PTSUNNY   80  74  82 SW5       29.93R
ALBANY         CLOUDY    78  75  90 S3        29.97R
HUNTER AFB     PTSUNNY   80  79  98 SW6       29.92R
MOODY AFB      CLOUDY    79  75  89 SW3       29.95R
BRUNSWICK      PTSUNNY   81  77  89 SW8       29.96R


CITY           SKY/WX    TMP DP  RH WIND       PRES   REMARKS
BAINBRIDGE*    CLOUDY    81  79  94 CALM      29.96R FOG
MOULTRIE*      CLOUDY    77  75  94 CALM      29.97S FOG
VIDALIA*       MOSUNNY   79  75  89 CALM      29.96R
WAYCROSS*      PTSUNNY   83  80  91 W7        29.96R HX  94
DOUGLAS*       CLOUDY    77  77 100 SW5       29.97S FOG
$$



USA.gov is the U.S. government's official web portal to all federal, state and local government web resources and services.